Simultaneous Nadir Overpasses (SNOs) Predictions

Prediction of SNOs between AQUA and METOP-A Satellite Orbit:

Table of predicted SNOs for the next 14.0 days since TLE Epoch: 4/12/2019
Index Date (AQUA) Time (AQUA) Lat,Lon (AQUA) SZA (AQUA ) Date (METOP-A) Time (METOP-A) Lat,Lon (METOP-A) SZA (METOP-A ) Distance(km) Time Diff (sec)
1 04/15/2019 13:40:18 74.60, -32.45 64.86 04/15/2019 13:39:11 74.51, -34.87 64.89 72.37 67
2 04/15/2019 14:29:53 -75.08, 133.97 114.63 04/15/2019 14:29:41 -75.09, 134.02 114.62 1.86 12
3 04/15/2019 15:19:21 75.11, -58.47 65.39 04/15/2019 15:20:20 75.11, -58.58 65.39 3.28 59
4 04/18/2019 09:14:31 74.61, 33.96 63.88 04/18/2019 09:13:23 74.59, 31.73 63.96 65.72 68
5 04/18/2019 10:04:06 -75.09,-159.63 115.62 04/18/2019 10:03:55 -75.07,-159.62 115.63 2.40 11
6 04/18/2019 10:53:34 75.12, 7.94 64.41 04/18/2019 10:54:33 75.14, 7.90 64.42 2.12 59
7 04/21/2019 04:48:44 74.64, 100.35 62.93 04/21/2019 04:47:36 74.61, 98.21 63.01 63.15 68
8 04/21/2019 05:38:19 -75.12, -93.24 116.57 04/21/2019 05:38:08 -75.10, -93.13 116.58 3.51 11
9 04/21/2019 06:27:47 75.14, 74.32 63.45 04/21/2019 06:28:46 75.16, 74.38 63.46 2.81 59
10 04/24/2019 00:22:57 74.71, 166.60 62.06 04/24/2019 00:21:48 74.64, 164.68 62.08 57.00 69
11 04/24/2019 01:12:30 -75.09, -26.74 117.54 04/24/2019 01:12:21 -75.08, -26.78 117.55 2.00 9
12 04/24/2019 02:01:59 75.17, 140.69 62.54 04/24/2019 02:02:59 75.14, 140.72 62.49 3.55 60
13 04/26/2019 19:57:10 74.75,-127.05 61.18 04/26/2019 19:56:01 74.66,-128.85 61.18 53.93 69
14 04/26/2019 20:46:42 -75.08, 39.75 118.48 04/26/2019 20:46:34 -75.11, 39.70 118.45 3.29 8




NCC Satellite Simultaneous Nadir Overpasses (SNOs) Prediction Service
